Terug naar catalogus

YAOGAN-43 03B

ActiefMilitairVLEO
NORAD 61618·PAYLOAD·🇨🇳 China

Gelanceerd Oct 23, 2024 vanaf Xichang Satellite Launch Center

Loading…

Volgende Passages (komende 24 uur)

TLE

VersSource: Space-Track

Epoch: Sep 14, 2026, 17:23 UTC

1 61618U 24190B   26257.72496756  .00006816  00000-0  28242-3 0  9998
2 61618  34.9900 354.4510 0007042  99.3735 260.7776 15.23191833105524

Volg YAOGAN-43 03B in realtime met AllMySat

Download on the App Store